Find Trisat-3

NORAD ID: 67482 Int'l Des: 2025-313 Owner: QAU Country: QA operational
LEOCIRCULARRETROGRADESSO

リアルタイム位置

3D地球を読み込み中...

Trisat-3について

説明を読み込み中...

次回通過

Passes for default location (London). Set your location on the main map for personalized predictions.

高度履歴

Loading altitude history...

軌道要素

1 67482U 25313BE 26120.15501078 .00117500 00000-0 30188-2 0 9995
2 67482 97.3924 196.9201 0009727 169.1249 191.0208 15.38791463 15866
Epoch: Apr 30, 2026 • Age: 5 hours

現在のステータス

高度 458.7 km
速度 7.64 km/s
衛星直下点 33.03°N, 154.18°W
打ち上げ日 Dec 28, 2025
運用期間 0.3 years
タイプ other

技術仕様

分類 Payload
質量 0.50 kg
乾燥質量 0.50 kg
総質量 0.50 kg
長さ 0.01 m
直径 0.30 m
スパン 0.30 m
形状 Plate
製造者 OKB5P/QAU
バスタイプ Trisat
フェーズステータス In Orbit
所有者/国 QAU/QA

Most Searched